Regional Weather Roundup
Issued by NWS

Home | Current Version | Previous Version | Graphics & Text | Print | Product List | Glossary Off
Versions: 1 2 3 4 5 6 7 8 9 10 11 12 13 14 15 16 17 18 19 20 21 22 23 24 25 26 27 28 29 30 31 32 33 34 35 36 37 38 39 40 41 42 43 44 45 46 47 48 49 50

227
ASUS43 KDMX 012203
RWRIA

WEATHER ROUNDUP FOR IOWA
NATIONAL WEATHER SERVICE DES MOINES IA
500 PM CDT SUN MAY 01 2016

NOTE: "FAIR" INDICATES FEW OR NO CLOUDS BELOW 12,000 FEET WITH NO
SIGNIFICANT WEATHER AND/OR OBSTRUCTIONS TO VISIBILITY.

* - THESE STATIONS ARE NOT NWS STATIONS...THUS NOT UNDER NWS
QUALITY CONTROL.  THEY ALSO DO NOT REPORT WEATHER SUCH
AS PRECIPITATION OR FOG.

IAZ001>003-012>014-020>022-031>034-043>046-012300-
   NORTHWEST IOWA

CITY           SKY/WX    TMP DP  RH WIND       PRES   REMARKS
CARROLL *      CLOUDY    50  46  87 N17       30.09F
CHEROKEE *     CLOUDY    54  43  66 N13       30.12F
DENISON *      CLOUDY    48  45  87 NE10G18   30.08F
LE MARS *      CLOUDY    55  41  58 N9G16     30.14F
ORANGE CITY *  CLOUDY    54  41  62 N8G17     30.14R
SHELDON *      CLOUDY    55  43  62 N17       30.12S
SIOUX CITY     CLOUDY    55  41  59 NE12G21   30.14F
SPENCER        CLOUDY    54  39  57 N12       30.12S
STORM LAKE *   LGT RAIN  50  45  81 N10       30.12S
$$

IAZ055>058-069>071-079>083-090>094-012300-
   SOUTHWEST IOWA

CITY           SKY/WX    TMP DP  RH WIND       PRES   REMARKS
ATLANTIC *     CLOUDY    48  43  81 N17G23    30.08F
AUDUBON *      CLOUDY    48  45  87 N10       30.10S
CLARINDA *       N/A    N/A N/A N/A MISG        N/A
COUNCIL BLFS *   N/A     48  43  81 N14       30.11R
CRESTON *      CLOUDY    46  43  87 N13       30.07R
HARLAN  *      CLOUDY    48  45  87 N15G22    30.13S
LAMONI         CLOUDY    48  44  86 N10       30.04R
RED OAK *      CLOUDY    50  45  81 N17       30.08S
SHENANDOAH *   CLOUDY    50  46  87 N20       30.09S
$$

IAZ047>049-059>061-072>074-084-012300-
   CENTRAL IOWA

CITY           SKY/WX    TMP DP  RH WIND       PRES   REMARKS
AMES           LGT RAIN  49  46  90 NE13      30.08R
ANKENY *       CLOUDY    48  48 100 N10       30.07R
BOONE *        LGT RAIN  48  46  93 N13       30.07S
CHARITON *     LGT RAIN  48  46  93 N12       30.03F
DES MOINES     DRIZZLE   49  45  86 N12       30.06S FOG
GRINNELL*      LGT RAIN  46  46 100 N9        30.04S
KNOXVILLE *    LGT RAIN  48  46  93 N8        30.03S
MARSHALLTOWN   LGT RAIN  48  45  89 N12       30.06R
NEWTON *       CLOUDY    48  48 100 N14       30.05R
PELLA *        RAIN      48  46  93 N7        30.05S
$$

IAZ004>006-015-016-023>025-035-036-012300-
   NORTH CENTRAL IOWA

CITY           SKY/WX    TMP DP  RH WIND       PRES   REMARKS
ALGONA *       PTSUNNY   55  39  54 NE14      30.10S
CLARION *      LGT RAIN  50  46  87 N10       30.09S
ESTHERVILLE    CLOUDY    56  42  59 N14       30.10F
FORT DODGE *   CLOUDY    50  45  81 NE8       30.10S
MASON CITY     LGT RAIN  52  43  71 N12       30.09R
FOREST CITY *  CLOUDY    52  37  58 NE7       30.09R
WEBSTER CITY * LGT RAIN  50  46  87 N10       30.08S
IOWA FALLS *   LGT RAIN  48  46  93 N6        30.09R
$$

IAZ007>011-017>019-026>030-037>042-050>054-066-012300-
   NORTHEAST IOWA

CITY           SKY/WX    TMP DP  RH WIND       PRES   REMARKS
CEDAR RAPIDS   RAIN      48  48 100 N6        30.02R FOG
CHARLES CITY * LGT RAIN  50  48  93 E6        30.08R
CLINTON *      LGT RAIN  49  48  97 NE8       30.00F FOG
DECORAH *      LGT RAIN  48  46  93 CALM      30.07R
DUBUQUE        RAIN      49  47  93 NE5       30.02R FOG
MONTICELLO *   LGT RAIN  48  48 100 CALM      30.03R
OELWEIN *      LGT RAIN  48  48 100 NE12      30.06R
WATERLOO       LGT RAIN  48  44  86 NE9       30.07R FOG
$$

IAZ064-065-067-068-078-012300-
   EAST CENTRAL IOWA

CITY           SKY/WX    TMP DP  RH WIND       PRES   REMARKS
DAVENPORT      LGT RAIN  49  47  93 N10       29.99S
IOWA CITY      LGT RAIN  49  47  93 NW9       30.03R
MT. PLEASANT * DRIZZLE   52  52 100 N9        30.00R
MUSCATINE *    HVY RAIN  50  48  93 N9        30.00S VSB 1
QUAD CITIES    LGT RAIN  51  47  86 NE9       29.97S FOG
$$

IAZ062-063-075>077-085>089-095>099-012300-
   SOUTHEAST IOWA

CITY           SKY/WX    TMP DP  RH WIND       PRES   REMARKS
BURLINGTON     CLOUDY    50  50 100 N7        29.98R FOG
FAIRFIELD *    LGT RAIN  48  46  93 N7        30.02R
FORT MADISON * CLOUDY    50  50 100 N5        29.99S FOG
KEOKUK *       CLOUDY    52  52 100 N7        29.98R FOG
OSKALOOSA *    RAIN      47  46  98 N6        30.03R
OTTUMWA        LGT RAIN  47  46  97 N9        30.03R
WASHINGTON *   HVY RAIN  48  48 100 N10       30.02S
$$

ABBREVIATIONS USED IN REMARKS
   TC - TEMPERATURES IN CELSIUS
  WCI - WIND CHILL INDEX
   HX - HEAT INDEX
  VSB - VISIBILITY
$$





USA.gov is the U.S. government's official web portal to all federal, state and local government web resources and services.